Weather History for KIAG - January, 2014

Change the Weather History Date:

Thursday, January 23, 2014

  Actual Average Record
Temperature  
Mean Temperature 6 °F -  
Max Temperature 12 °F 26 °F 53 °F (1999)
Min Temperature -2 °F 13 °F -11 °F (2011)
Degree Days  
Heating Degree Days 58    
Moisture  
Dew Point 3 °F    
Average Humidity 78    
Maximum Humidity 88    
Minimum Humidity 64    
Precipitation  
Precipitation 0.01 in - - ()
Snow  
Snow 0.00 in - - ()
Snow Depth 2.00 in    
Sea Level Pressure  
Sea Level Pressure 30.20 in    
Wind  
Wind Speed 8 mph (NW)    
Max Wind Speed 16 mph    
Max Gust Speed -    
Visibility 3 miles    
Events Snow    
Averages and records for this station are not official NWS values.
T = Trace of Precipitation, MM = Missing Value Source: NWS Daily Summary

Daily Weather History Graph

Daily Weather History Graph

Search for Another Location

Airport or City:

Trip Planner

Search our weather history database for the weather conditions in past years. The results will help you decide how hot, cold, wet, or windy it might be!

Date:

Astronomy

Jan. 23, 2014 Rise Set
Actual Time 7:39 AM EST 5:16 PM EST
Civil Twilight 7:08 AM EST 5:47 PM EST
Nautical Twilight 6:33 AM EST 6:21 PM EST
Astronomical Twilight 6:00 AM EST 6:55 PM EST
Moon No Moon Rise 11:01 AM EST (1/23)
Length of Visible Light 10h 38m
Length of Day
9h 36m
Waning Gibbous, 55% of the Moon is Illuminated
Jan 23
Waning Gibbous
Jan 24
Last Quarter
Jan 30
New
Feb 6
First Quarter
Feb 14
Full

Hourly Weather History & Observations

Time (EST) Temp. Windchill Dew Point Humidity Pressure Visibility Wind Dir Wind Speed Gust Speed Precip Events Conditions
12:11 AM 6.8 °F -4.8 °F 1.4 °F 79% 30.02 in 3.0 mi South 6.9 mph - 0.00 in Snow Light Snow
12:53 AM 7.0 °F -3.3 °F 1.9 °F 80% 30.09 in 4.0 mi South 5.8 mph - 0.00 in Snow Light Snow
1:53 AM 7.0 °F -3.3 °F 1.9 °F 80% 30.10 in 7.0 mi SSW 5.8 mph - 0.00 in   Overcast
2:53 AM 7.0 °F -3.3 °F 3.0 °F 84% 30.10 in 7.0 mi SSW 5.8 mph - 0.00 in   Overcast
3:53 AM 7.0 °F -3.3 °F 3.0 °F 84% 30.10 in 5.0 mi SSW 5.8 mph - N/A   Overcast
4:53 AM 7.0 °F -4.5 °F 1.9 °F 80% 30.10 in 10.0 mi SSW 6.9 mph - N/A   Overcast
5:53 AM 6.1 °F -4.3 °F 1.9 °F 83% 30.12 in 10.0 mi SW 5.8 mph - N/A   Overcast
6:53 AM 3.9 °F -8.2 °F 1.0 °F 88% 30.15 in 7.0 mi WSW 6.9 mph - N/A   Overcast
7:04 AM 6.8 °F -3.5 °F 3.2 °F 85% 30.06 in 5.0 mi WSW 5.8 mph - 0.00 in Snow Light Snow
7:10 AM 6.8 °F -3.5 °F 3.2 °F 85% 30.07 in 2.5 mi WSW 5.8 mph - 0.00 in Snow Light Snow
7:12 AM 6.8 °F -2.0 °F 3.2 °F 85% 30.07 in 3.0 mi WSW 4.6 mph - 0.00 in Snow Light Snow
7:39 AM 8.6 °F - 3.2 °F 79% 30.07 in 2.0 mi Calm Calm - 0.00 in Snow Light Snow
7:46 AM 8.6 °F - 3.2 °F 79% 30.08 in 1.5 mi Calm Calm - 0.00 in Snow Light Snow
7:49 AM 8.6 °F - 3.2 °F 79% 30.08 in 0.8 mi Calm Calm - 0.00 in Snow Light Snow
7:53 AM 8.1 °F - 5.0 °F 87% 30.16 in 0.8 mi Calm Calm - 0.00 in Snow Light Snow
8:15 AM 8.6 °F -3.7 °F 3.2 °F 79% 30.08 in 1.0 mi West 8.1 mph - 0.01 in Snow Light Snow
8:21 AM 8.6 °F -2.6 °F 3.2 °F 79% 30.08 in 1.5 mi West 6.9 mph - 0.01 in Snow Light Snow
8:53 AM 9.0 °F -2.2 °F 3.9 °F 80% 30.18 in 1.5 mi West 6.9 mph - 0.01 in Snow Light Snow
9:09 AM 8.6 °F -1.3 °F 5.0 °F 85% 30.10 in 1.8 mi West 5.8 mph - 0.00 in Snow Light Snow
9:15 AM 8.6 °F 0.1 °F 5.0 °F 85% 30.10 in 2.0 mi West 4.6 mph - 0.00 in Snow Light Snow
9:33 AM 10.4 °F 2.2 °F 5.0 °F 79% 30.11 in 2.5 mi NW 4.6 mph - 0.00 in Snow Light Snow
9:44 AM 10.4 °F -1.5 °F 5.0 °F 79% 30.11 in 3.0 mi NNW 8.1 mph - 0.00 in Snow Light Snow
9:53 AM 10.0 °F -2.9 °F 5.0 °F 80% 30.20 in 3.0 mi NNW 9.2 mph - 0.00 in Snow Light Snow
10:01 AM 12.2 °F -1.8 °F 6.8 °F 79% 30.12 in 2.5 mi North 11.5 mph - 0.00 in Snow Light Snow
10:02 AM 12.2 °F -1.8 °F 6.8 °F 79% 30.12 in 0.8 mi North 11.5 mph - 0.00 in Snow Light Snow
10:04 AM 12.2 °F -1.0 °F 6.8 °F 79% 30.12 in 0.5 mi North 10.4 mph - 0.00 in Snow Snow
10:12 AM 10.4 °F -2.4 °F 6.8 °F 85% 30.13 in 1.2 mi North 9.2 mph - 0.00 in Snow Light Snow
10:30 AM 10.4 °F -4.1 °F 5.0 °F 79% 30.14 in 0.8 mi North 11.5 mph - 0.00 in Snow Light Snow
10:40 AM 10.4 °F -4.8 °F 5.0 °F 79% 30.15 in 1.0 mi North 12.7 mph - 0.00 in Snow Light Snow
10:47 AM 10.4 °F -4.1 °F 3.2 °F 73% 30.15 in 1.5 mi North 11.5 mph - 0.00 in Snow Light Snow
10:53 AM 10.9 °F -3.4 °F 3.9 °F 73% 30.24 in 1.5 mi North 11.5 mph - 0.00 in Snow Light Snow
10:58 AM 10.4 °F -4.1 °F 3.2 °F 73% 30.16 in 2.0 mi North 11.5 mph - 0.00 in Snow Light Snow
11:21 AM 10.4 °F -2.4 °F 5.0 °F 79% 30.16 in 1.5 mi NNW 9.2 mph - 0.00 in Snow Light Snow
11:27 AM 10.4 °F -2.4 °F 5.0 °F 79% 30.16 in 0.8 mi NNW 9.2 mph - 0.00 in Snow Light Snow
11:39 AM 10.4 °F -4.1 °F 3.2 °F 73% 30.16 in 1.0 mi NNW 11.5 mph - 0.00 in Snow Light Snow
11:53 AM 10.0 °F -4.5 °F 3.9 °F 76% 30.25 in 1.0 mi NNW 11.5 mph - 0.00 in Snow Light Snow
11:54 AM 10.4 °F -4.1 °F 3.2 °F 73% 30.16 in 1.2 mi NNW 11.5 mph - 0.00 in Snow Light Snow
11:58 AM 10.4 °F -4.1 °F 3.2 °F 73% 30.16 in 1.5 mi NNW 11.5 mph - 0.00 in Snow Light Snow
12:26 PM 10.4 °F -4.1 °F 3.2 °F 73% 30.17 in 2.5 mi NNW 11.5 mph - 0.00 in Snow Light Snow
12:32 PM 10.4 °F -4.1 °F 3.2 °F 73% 30.17 in 1.5 mi NNW 11.5 mph - 0.00 in Snow Light Snow
12:36 PM 10.4 °F -2.4 °F 5.0 °F 79% 30.17 in 2.0 mi NNW 9.2 mph - 0.00 in Snow Light Snow
12:53 PM 10.0 °F -3.7 °F 3.9 °F 76% 30.25 in 2.0 mi NNW 10.4 mph - 0.00 in Snow Light Snow
1:53 PM 9.0 °F -5.9 °F 3.0 °F 77% 30.27 in 2.0 mi NW 11.5 mph - 0.00 in Snow Light Snow
2:08 PM 8.6 °F -3.7 °F 3.2 °F 79% 30.19 in 1.5 mi NW 8.1 mph - 0.00 in Snow Light Snow
2:22 PM 8.6 °F -6.3 °F 3.2 °F 79% 30.19 in 2.0 mi WNW 11.5 mph - 0.00 in Snow Light Snow
2:38 PM 8.6 °F -6.3 °F 3.2 °F 79% 30.20 in 1.2 mi NW 11.5 mph - 0.00 in Snow Light Snow
2:48 PM 8.6 °F -6.3 °F 3.2 °F 79% 30.21 in 2.0 mi NW 11.5 mph - 0.00 in Snow Light Snow
2:53 PM 9.0 °F -8.5 °F 1.9 °F 73% 30.29 in 2.0 mi NW 16.1 mph - 0.00 in Snow Light Snow
2:55 PM 8.6 °F -7.7 °F 1.4 °F 73% 30.21 in 3.0 mi NW 13.8 mph - 0.00 in Snow Light Snow
3:53 PM 8.1 °F -6.2 °F 1.0 °F 73% 30.32 in 5.0 mi NW 10.4 mph - 0.00 in Snow Light Snow
4:22 PM 8.6 °F -3.7 °F 1.4 °F 73% 30.25 in 3.0 mi WNW 8.1 mph - 0.00 in Snow Light Snow
4:53 PM 9.0 °F -0.9 °F 1.9 °F 73% 30.34 in 3.0 mi WNW 5.8 mph - 0.00 in Snow Light Snow
5:01 PM 8.6 °F -1.3 °F 3.2 °F 79% 30.26 in 1.5 mi NW 5.8 mph - 0.00 in Snow Light Snow
5:19 PM 8.6 °F -2.6 °F 3.2 °F 79% 30.27 in 1.2 mi NW 6.9 mph - 0.00 in Snow Light Snow
5:53 PM 9.0 °F -0.9 °F 3.9 °F 80% 30.36 in 1.2 mi WNW 5.8 mph - 0.00 in Snow Light Snow
6:15 PM 8.6 °F -2.6 °F 3.2 °F 79% 30.29 in 1.8 mi WNW 6.9 mph - 0.00 in Snow Light Snow
6:32 PM 8.6 °F -3.7 °F 3.2 °F 79% 30.29 in 2.5 mi WNW 8.1 mph - 0.00 in Snow Light Snow
6:43 PM 8.6 °F -5.5 °F 3.2 °F 79% 30.30 in 3.0 mi WNW 10.4 mph - 0.00 in Snow Light Snow
6:53 PM 9.0 °F -6.6 °F 1.9 °F 73% 30.39 in 4.0 mi NW 12.7 mph - 0.00 in Snow Light Snow
7:53 PM 8.1 °F -7.0 °F -2.0 °F 64% 30.41 in 8.0 mi NW 11.5 mph - 0.00 in Snow Light Snow
8:26 PM 6.8 °F -10.7 °F -2.2 °F 67% 30.33 in 9.0 mi NW 15.0 mph - 0.00 in Snow Light Snow
8:53 PM 7.0 °F -9.8 °F -0.9 °F 70% 30.42 in 3.0 mi WNW 13.8 mph - 0.00 in Snow Light Snow
9:03 PM 6.8 °F -9.3 °F -0.4 °F 72% 30.34 in 1.8 mi WNW 12.7 mph - 0.00 in Snow Light Snow
9:28 PM 6.8 °F -11.3 °F -2.2 °F 67% 30.34 in 3.0 mi WNW 16.1 mph - 0.00 in Snow Light Snow
9:41 PM 5.0 °F -12.3 °F -2.2 °F 72% 30.35 in 6.0 mi NW 13.8 mph - 0.00 in Snow Light Snow
9:53 PM 5.0 °F -10.8 °F -0.9 °F 76% 30.43 in 3.0 mi NW 11.5 mph - 0.00 in Snow Light Snow
10:21 PM 5.0 °F -10.0 °F -0.4 °F 78% 30.35 in 3.0 mi NW 10.4 mph - 0.00 in Snow Light Snow
10:53 PM 3.0 °F -10.5 °F -4.0 °F 73% 30.44 in 10.0 mi WNW 8.1 mph - 0.00 in Snow Light Snow
11:03 PM 1.4 °F -9.9 °F -5.8 °F 72% 30.35 in 10.0 mi WNW 5.8 mph - N/A   Scattered Clouds
11:53 PM -2.9 °F -18.8 °F -8.0 °F 79% 30.44 in 10.0 mi WSW 9.2 mph - N/A   Scattered Clouds